{"data":{"norad_id":68458,"epoch":"2026-05-24T20:12:57.764736Z","epoch_age_seconds":88335,"freshness":"FRESH","line1":"1 68458U 26067AU  26144.84233524  .00006813  00000+0  34426-3 0  9999","line2":"2 68458  97.4464 103.5242 0007052 139.2688 220.9074 15.17368527  8394","mean_motion":15.17368527,"eccentricity":0.0007052,"inclination_deg":97.4464,"raan_deg":103.5242,"arg_perigee_deg":139.2688,"mean_anomaly_deg":220.9074,"bstar":0.00034426,"rev_number":839,"period_min":94.901138014707,"perigee_km":508.93707779127,"apogee_km":518.65746188545,"semimajor_km":6891.9342698384,"source":"CELESTRAK","updated_at":"2026-05-25T13:38:07.844721Z"}}